Location: Bratislava
(0.0000°N, 17.1167°E)
Time: 04:21:44
(UTC+01:00)

Palapa 6 Rocket - Pass Details

Date: 24 January 2021
Orbit: 485 x 1216 km, 22.7° (Epoch: 06 March)

Event Time Altitude Azimuth Distance (km) Brightness Sun altitude
Rises 19:08:10 0° 290° (WNW) 3,551 7.8 -15.2°
Reaches altitude 10° 19:11:04 10° 287° (WNW) 2,482 6.9 -15.9°
Maximum altitude 19:16:53 67° 206° (SSW) 785 3.7 -17.3°
Enters shadow 19:20:29 18° 125° (SE) 1,612 4.9 -18.1°
